Dewpoint
59 66 71 71 71 72 72 71 71 71 71 71 71 71 71 71 71 70 70 69 69 69 69 69 69 69 68 68 69 68 69 68 67 67 65 65 66 66 66 66 65 64 68
62 64 71 70 71 71 71 71 71 71 71 71 71 71 71 70 70 69 69 68 67 67 67 68 68 68 68 68 69 69 69 67 67 66 66 65 66 66 66 66 65 65 67
62 64 68 70 70 71 71 71 71 71 71 71 71 70 70 70 69 68 68 68 67 66 66 66 67 67 68 68 69 69 68 67 65 65 66 63 63 65 66 67 66 65 66
63 62 66 70 70 70 71 71 71 71 71 71 70 70 69 68 68 68 68 68 66 66 65 65 65 66 68 68 69 69 68 67 65 65 64 62 63 66 66 65 65 66 65
63 61 65 69 69 70 70 70 70 70 70 70 70 69 68 68 68 67 68 67 66 65 65 65 65 65 66 68 68 68 68 67 65 65 63 64 63 64 65 65 64 64 66
63 61 68 69 69 69 69 70 69 70 70 70 69 69 68 68 68 67 67 67 66 65 65 65 64 63 64 65 67 67 67 66 65 62 61 64 64 64 64 64 66 66 66
63 64 67 69 69 70 70 70 70 69 69 69 70 69 69 69 68 68 68 67 66 65 64 63 64 64 63 64 65 67 66 65 63 63 60 64 65 64 64 64 65 65 65
64 68 66 69 69 70 70 70 69 69 69 69 69 69 70 69 68 68 68 67 66 64 62 60 62 64 64 65 65 65 66 65 61 59 63 64 65 64 64 63 64 63 62
65 68 67 67 68 70 70 69 68 68 68 69 69 70 69 68 67 67 67 67 65 63 60 57 56 64 65 66 66 66 66 66 63 60 63 64 65 63 62 62 62 60 60
65 69 68 67 67 67 68 69 68 67 68 69 69 69 68 67 67 66 66 66 65 63 60 57 54 59 64 65 65 65 65 65 63 62 60 63 64 63 62 61 61 59 58
65 68 68 67 67 67 66 68 67 67 68 69 69 68 67 64 64 64 64 64 64 63 60 58 56 54 63 64 64 65 65 61 57 61 63 63 64 63 62 59 60 58 57
63 64 65 66 68 68 67 68 66 66 66 66 66 66 64 64 63 62 63 63 63 61 60 59 57 55 55 53 61 64 61 56 56 55 59 63 63 62 61 59 59 57 56
60 62 63 67 68 69 68 68 66 66 66 66 66 66 64 64 64 62 63 61 61 60 59 58 57 53 51 50 49 57 57 57 57 55 61 63 63 61 61 59 58 56 56
56 60 63 66 68 68 67 67 67 67 67 66 67 67 65 64 64 62 62 62 60 60 60 59 57 58 56 54 52 50 54 56 57 56 61 61 62 61 60 59 58 56 55
54 57 61 65 67 68 68 67 67 67 66 66 66 67 66 65 62 62 60 61 61 61 59 60 59 57 57 55 53 51 50 53 55 57 58 61 61 61 61 59 58 56 55
53 56 60 62 66 67 67 67 66 65 65 65 66 66 66 64 61 61 63 62 61 62 61 60 59 60 58 57 54 53 52 51 53 55 57 61 61 61 60 59 58 56 55
54 55 60 62 65 66 66 66 66 64 63 65 64 65 66 64 64 63 64 64 64 63 63 62 62 61 60 58 56 55 54 54 53 57 58 59 61 60 59 59 58 57 56
55 56 61 63 64 66 66 65 65 65 65 65 64 64 64 65 65 64 64 63 63 63 62 61 61 60 59 58 56 55 55 55 56 55 57 58 59 59 58 59 58 58 57
54 56 60 64 65 65 65 66 66 66 66 65 65 65 64 65 65 65 63 62 63 62 60 59 59 60 59 59 58 57 55 55 55 55 56 57 59 58 58 58 58 58 57
50 56 58 64 65 66 66 66 66 65 65 64 65 65 64 65 65 65 62 61 59 58 56 55 59 58 60 59 57 56 56 55 55 54 55 55 56 58 58 57 57 57 57
50 55 58 61 65 66 66 65 64 64 64 65 65 65 65 65 65 63 58 55 57 57 57 58 58 58 58 58 57 56 56 55 55 54 54 54 56 57 57 58 58 58 57
50 54 58 61 63 66 65 65 64 64 64 64 65 65 65 65 63 62 57 55 57 58 58 57 56 56 55 56 54 54 50 51 52 53 53 55 56 56 56 57 57 57 57
52 54 57 60 62 66 65 65 64 64 64 63 64 64 65 63 62 58 56 56 55 57 52 51 52 51 51 52 54 52 45 45 44 49 51 53 53 53 54 55 56 57 57
48 51 53 55 61 65 65 64 63 63 62 62 63 64 62 61 56 56 54 53 51 49 47 48 50 51 51 50 52 54 54 51 47 45 48 51 52 51 52 52 52 52 53
51 57 59 56 58 65 65 64 64 63 61 62 63 60 58 55 52 51 51 49 49 49 49 51 51 51 51 53 51 52 52 52 52 50 46 46 48 49 50 51 51 51 51
56 60 61 60 63 64 64 65 64 63 62 60 59 54 48 48 49 49 49 50 50 51 51 52 52 51 51 51 51 53 51 50 48 48 47 47 46 47 48 49 49 49 50
Wind_Speed
19 22 18 16 17 19 19 21 21 20 19 18 17 16 15 14 14 14 13 12 11 10 11 10 11 11 11 11 10 10 11 12 11 11 11 12 12 11 12 15 4 14 13
22 22 18 17 18 19 20 20 21 21 19 18 17 16 15 14 14 13 12 11 11 10 9 9 9 9 10 10 10 9 10 10 8 8 11 15 13 11 12 15 18 12 13
20 23 19 18 19 19 21 21 20 19 19 18 16 15 15 14 13 12 11 11 11 11 10 9 9 9 9 8 9 8 8 7 5 7 9 4 12 9 10 11 10 10 11
20 22 20 19 20 19 20 20 20 19 18 17 16 15 15 13 13 12 11 10 10 10 10 9 8 9 7 7 7 7 6 4 6 4 2 8 10 10 9 8 8 9 8
20 21 21 19 20 20 19 19 19 18 17 17 16 16 15 14 13 12 12 10 10 9 9 8 7 8 7 7 7 6 6 4 11 5 3 7 6 9 8 6 5 8 13
19 19 21 18 18 17 17 16 16 16 16 16 16 15 15 14 13 12 11 10 10 9 8 8 7 7 6 5 5 5 6 9 11 5 6 11 7 9 8 9 10 10 11
18 18 19 16 15 15 15 16 15 16 16 15 15 14 14 14 13 12 11 11 10 9 8 7 6 5 4 5 6 7 8 12 11 12 11 9 10 8 7 8 10 10 10
16 19 20 17 17 17 16 15 15 15 15 15 14 14 14 14 12 12 11 11 10 9 7 5 5 5 5 6 8 8 10 12 13 10 13 7 13 9 8 7 7 7 9
15 16 18 19 18 18 18 18 17 17 16 16 15 14 15 14 12 11 11 9 8 7 6 5 3 2 1 3 5 8 12 13 16 13 16 8 12 8 5 6 6 5 5
15 18 18 19 19 18 16 16 17 17 16 15 15 15 15 13 11 10 9 8 7 6 6 6 6 5 4 4 4 5 8 11 14 13 8 13 13 8 6 5 6 6 3
16 17 19 19 18 17 18 17 16 14 15 15 14 14 15 13 12 11 5 9 6 4 4 4 4 4 5 5 5 6 7 11 12 10 11 15 12 9 6 5 6 7 6
18 19 20 19 19 16 15 18 18 16 16 16 16 16 15 11 10 8 9 6 4 6 7 7 8 8 10 10 10 9 11 13 10 9 4 15 12 9 7 6 7 6 6
20 18 17 15 14 18 15 15 17 17 16 15 19 17 15 9 10 8 9 9 9 10 9 9 8 9 12 8 6 11 11 10 10 10 12 14 13 9 8 9 9 9 7
19 20 18 17 13 11 11 17 17 14 14 14 12 15 12 10 10 9 14 15 11 11 10 7 7 5 5 8 9 10 9 10 9 8 12 15 12 11 9 10 10 10 9
18 18 19 21 17 16 14 15 15 17 15 15 16 14 13 11 11 8 5 2 7 8 6 5 6 6 7 9 9 10 11 11 12 7 5 16 15 13 13 13 13 12 11
19 19 19 21 20 17 16 15 14 14 15 11 13 13 13 11 5 5 4 8 4 5 3 4 7 9 8 7 9 10 10 10 10 11 9 12 16 15 14 15 15 14 13
19 17 19 18 20 18 18 15 14 14 12 10 10 14 13 10 8 8 7 5 7 5 5 5 6 6 10 11 10 9 10 10 12 10 6 7 11 16 15 16 16 16 16
19 20 20 18 18 18 17 17 14 12 9 9 9 6 9 11 11 8 7 8 6 5 6 8 7 8 8 9 6 5 6 5 11 12 11 11 9 12 17 18 18 19 19
22 21 23 22 21 20 17 14 12 10 11 9 9 9 12 13 12 9 8 8 6 7 6 7 7 10 10 9 10 9 9 11 11 11 15 16 13 12 15 21 22 21 20
21 21 22 23 23 19 16 13 13 12 13 12 12 13 12 12 12 12 9 7 6 8 8 7 9 10 9 8 7 9 11 12 13 14 15 16 17 20 17 18 19 18 19
20 22 23 23 23 21 18 18 15 15 13 12 14 13 14 13 13 12 9 6 7 6 9 11 10 9 10 10 8 8 11 11 13 15 17 18 17 19 19 18 17 17 18
20 21 22 23 23 23 17 17 15 18 13 16 15 16 15 14 13 12 7 4 3 5 8 11 12 11 13 10 8 8 7 10 13 18 16 12 13 13 15 15 19 17 18
14 15 19 22 23 22 19 19 18 18 14 16 17 17 18 16 12 9 8 7 8 10 10 9 10 12 15 15 15 13 13 9 14 7 15 13 11 10 10 8 12 13 18
12 13 16 20 21 27 25 23 21 21 21 18 20 17 17 16 14 13 11 10 9 9 9 9 10 11 12 16 15 16 20 19 12 15 9 13 13 14 15 13 13 12 11
9 10 11 17 19 23 23 19 22 25 21 17 16 19 15 12 12 10 10 10 9 8 9 10 11 12 12 12 16 15 15 16 12 14 19 15 10 13 12 12 14 15 15
7 9 12 14 16 19 21 23 25 25 19 18 13 14 15 14 13 13 12 10 9 9 11 11 12 14 15 15 16 15 16 13 7 12 14 18 19 11 14 10 12 13 14
Wind_Direction
127 135 130 124 118 117 119 123 126 128 130 131 126 124 123 119 111 104 99 100 104 105 105 104 104 102 99 95 86 85 97 97 95 91 92 85 74 59 42 24 164 69 57
124 142 133 125 119 120 122 126 131 132 134 134 132 131 124 119 112 111 113 112 113 109 102 95 92 93 95 97 91 97 98 104 110 131 129 110 83 70 57 48 41 59 57
133 140 141 128 126 128 132 134 134 136 137 136 133 128 125 125 126 125 122 119 118 115 112 107 108 103 102 105 104 104 109 116 159 179 189 315 87 81 76 70 68 64 62
140 148 146 142 137 136 135 137 138 141 138 135 135 135 134 136 134 128 121 114 114 113 109 107 107 105 108 111 114 116 120 145 234 244 226 90 87 85 76 77 77 58 78
146 157 146 149 143 143 143 140 140 141 138 140 141 144 143 144 137 133 122 121 122 119 110 108 115 118 129 137 145 147 156 193 248 249 159 60 108 95 73 51 95 76 57
149 160 143 151 147 145 140 140 142 140 143 145 145 149 150 146 140 132 127 130 127 118 122 129 133 136 144 151 170 169 186 216 239 207 105 135 95 104 81 69 63 59 64
156 146 152 151 146 146 147 148 148 148 149 149 152 154 152 145 144 136 137 133 129 134 136 142 135 129 139 171 194 200 211 241 254 245 149 113 110 109 93 79 80 71 58
160 137 154 159 159 158 156 157 155 155 156 157 156 156 153 145 145 145 145 139 141 147 146 141 147 159 177 195 205 211 222 247 258 247 114 143 126 128 115 96 85 83 83
157 150 161 173 172 168 167 166 164 164 166 162 160 163 148 152 153 155 157 154 152 150 146 151 161 164 168 189 205 213 218 237 260 310 129 159 140 134 125 124 116 94 81
160 148 172 180 180 181 178 171 169 171 167 163 163 159 159 158 164 169 164 167 166 165 159 166 172 175 185 190 203 215 225 241 253 287 164 117 144 145 160 151 140 126 96
173 168 176 189 183 187 183 175 174 171 167 166 165 166 167 182 182 168 143 149 171 170 165 181 202 199 194 190 194 205 223 233 234 235 119 138 142 163 175 173 168 150 113
184 182 179 189 171 186 186 171 186 180 184 189 187 181 197 190 181 169 139 132 174 196 197 195 203 206 214 218 192 198 227 247 236 262 159 152 157 183 193 185 172 151 121
183 188 184 193 165 181 172 172 186 188 192 196 195 191 214 205 191 198 158 184 204 199 216 202 204 228 225 262 250 207 221 246 245 245 146 163 167 194 205 194 181 163 144
185 183 183 177 180 180 178 187 177 182 187 198 190 194 217 208 190 210 178 194 215 165 226 214 232 253 291 273 272 276 251 252 246 268 145 169 186 188 206 201 199 176 160
190 188 185 175 182 185 183 199 178 187 191 203 190 192 218 207 213 198 233 241 203 191 225 254 274 263 245 248 260 254 257 252 254 251 216 177 190 195 203 209 208 197 173
197 189 187 184 181 186 192 192 201 212 185 217 168 178 211 230 206 230 215 234 230 240 262 255 266 287 260 266 258 258 263 266 275 254 275 176 194 198 209 209 210 205 186
205 187 186 192 174 191 198 190 200 196 213 199 203 180 176 219 216 219 207 229 242 229 258 266 284 309 331 316 335 325 263 257 264 340 281 273 213 209 205 220 213 206 195
203 192 187 191 186 190 194 194 196 191 205 198 217 191 185 207 218 209 211 224 213 242 273 258 273 257 241 254 263 299 286 303 288 267 258 252 216 211 214 220 216 205 203
199 192 188 189 194 191 189 191 188 189 182 187 181 185 206 210 216 228 221 237 222 251 251 263 271 273 270 255 248 253 240 242 247 253 246 242 242 226 215 213 213 209 204
207 196 196 185 191 188 181 185 186 182 190 187 190 201 199 210 216 213 232 241 264 256 281 272 259 280 257 268 275 265 257 244 240 242 247 241 237 230 223 222 214 212 205
211 194 201 193 189 180 184 182 176 183 183 183 199 195 196 207 212 219 234 234 229 287 299 310 296 289 278 264 247 255 265 262 255 251 247 247 237 236 235 228 221 217 211
216 212 205 204 199 184 188 184 184 184 186 187 194 198 203 207 212 222 221 245 240 249 264 261 277 270 273 269 252 275 275 244 244 248 247 248 258 257 251 243 227 223 216
227 232 226 208 203 170 173 199 190 182 183 195 197 201 205 202 208 202 200 215 228 218 254 263 275 275 278 268 256 257 276 263 317 257 232 232 240 253 253 256 256 238 216
227 226 225 224 203 162 171 200 191 185 189 196 196 193 190 190 190 195 206 215 229 248 264 266 259 262 273 273 268 258 259 275 283 285 245 229 221 233 241 241 247 257 268
198 201 225 218 208 175 175 201 197 199 204 190 199 196 180 175 198 198 206 219 232 242 256 259 273 274 271 266 274 277 266 270 274 261 275 260 216 243 242 238 242 242 243
185 187 211 216 189 189 185 199 204 209 200 197 173 174 186 181 189 203 209 219 233 246 253 263 265 264 264 265 260 258 263 254 233 234 255 264 263 246 217 220 234 239 234